Location: Newark
(49.8969°N, 3.3422°E)
Time: 20:02:22
(UTC+00:00)

deb Explorer IX - Pass Details

Date: 21 January 2020
Orbit: 549 x 1099 km, 38.8° (Epoch: 17 February)

Event Time Altitude Azimuth Distance (km) Brightness Sun altitude
Rises 00:47:18 0° 242° (WSW) 3,904 - -58.6°
Reaches altitude 10° 00:50:24 10° 233° (SW) 2,937 - -58.4°
Maximum altitude 00:56:37 32° 174° (S) 1,725 - -57.9°
Drops below altitude 10° 01:02:27 10° 115° (ESE) 2,743 - -57.5°
Sets 01:05:14 0° 105° (ESE) 3,613 - -57.3°
